PKDNI WAVV-WASS

Flight info

Callsign PKDNI
Flight time 1h 47m
Altitude 24000
Route PONTX DCT PYRMD DCT BOKON DCT BESKA DCT LINLU W62 BIK W41 MKW
Aircraft DH8D/M-SDE2E3FGRY/H

Departure

Time 2026-04-16 02:53
Airport Wamena Airport (WAVV)

Arrival

Time 2026-04-16 04:40
Airport Domine Eduard Osok Airport (WASS)
Time Latitude Longitude Altitude Speed Heading
2026-04-16 02:41 -4.10025 138.95244 5434 ft 0 kts 153°
2026-04-16 02:49 -4.10024 138.95244 5434 ft 0 kts 153°
2026-04-16 02:50 -4.10035 138.95273 5434 ft 9 kts 91°
2026-04-16 02:50 -4.10055 138.95372 5434 ft 14 kts 108°
2026-04-16 02:50 -4.10131 138.95450 5434 ft 26 kts 154°
2026-04-16 02:51 -4.10335 138.95556 5434 ft 34 kts 149°
2026-04-16 02:51 -4.10478 138.95644 5434 ft 12 kts 129°
2026-04-16 02:51 -4.10487 138.95636 5434 ft 2 kts 327°
2026-04-16 02:51 -4.10486 138.95635 5434 ft 0 kts 327°
2026-04-16 02:52 -4.10485 138.95635 5434 ft 0 kts 327°
2026-04-16 02:52 -4.10478 138.95630 5434 ft 5 kts 330°
2026-04-16 02:52 -4.10322 138.95551 5434 ft 56 kts 332°
2026-04-16 02:52 -4.09778 138.95267 5434 ft 118 kts 332°
2026-04-16 02:53 -4.08850 138.94789 5529 ft 167 kts 333°
2026-04-16 02:53 -4.07800 138.94228 6156 ft 172 kts 330°
2026-04-16 02:53 -4.06776 138.93616 6922 ft 175 kts 326°
2026-04-16 02:53 -4.05735 138.92998 7556 ft 182 kts 331°
2026-04-16 02:54 -4.04589 138.92471 8025 ft 196 kts 335°
2026-04-16 02:54 -4.03326 138.91926 8444 ft 210 kts 335°
2026-04-16 02:54 -4.01935 138.91319 8881 ft 219 kts 335°
2026-04-16 02:54 -4.00565 138.90706 9241 ft 230 kts 334°
2026-04-16 02:55 -3.99134 138.90049 9770 ft 233 kts 334°
2026-04-16 02:55 -3.97772 138.89174 10413 ft 232 kts 317°
2026-04-16 02:55 -3.96782 138.87973 10993 ft 234 kts 303°
2026-04-16 02:55 -3.95924 138.86584 11562 ft 236 kts 300°
2026-04-16 02:56 -3.95097 138.85151 12131 ft 239 kts 299°
2026-04-16 02:56 -3.94293 138.83700 12698 ft 241 kts 298°
2026-04-16 02:56 -3.93521 138.82268 13248 ft 243 kts 298°
2026-04-16 02:56 -3.92734 138.80790 13791 ft 245 kts 298°
2026-04-16 02:57 -3.91934 138.79280 14282 ft 249 kts 298°
2026-04-16 02:57 -3.91087 138.77763 14696 ft 253 kts 304°
2026-04-16 02:57 -3.89851 138.76501 15090 ft 255 kts 325°
2026-04-16 02:57 -3.88314 138.75618 15578 ft 255 kts 335°
2026-04-16 02:58 -3.86707 138.74898 16083 ft 254 kts 338°
2026-04-16 02:58 -3.85072 138.74208 16586 ft 254 kts 339°
2026-04-16 02:58 -3.83433 138.73541 17077 ft 254 kts 340°
2026-04-16 02:58 -3.81790 138.72890 17558 ft 254 kts 341°
2026-04-16 02:59 -3.80143 138.72249 18028 ft 253 kts 341°
2026-04-16 02:59 -3.78496 138.71610 18488 ft 253 kts 341°
2026-04-16 02:59 -3.76870 138.70983 18933 ft 253 kts 341°
2026-04-16 02:59 -3.75219 138.70351 19376 ft 254 kts 341°
2026-04-16 03:00 -3.73565 138.69715 19795 ft 253 kts 341°
2026-04-16 03:00 -3.71917 138.69080 20148 ft 253 kts 341°
2026-04-16 03:00 -3.70197 138.68412 20530 ft 254 kts 341°
2026-04-16 03:00 -3.68808 138.67899 20869 ft 253 kts 344°
2026-04-16 03:01 -3.67085 138.67486 21265 ft 253 kts 352°
2026-04-16 03:01 -3.65371 138.67206 21661 ft 252 kts 353°
2026-04-16 03:01 -3.63631 138.66948 22053 ft 252 kts 353°
2026-04-16 03:01 -3.61895 138.66690 22433 ft 252 kts 353°
2026-04-16 03:02 -3.60151 138.66425 22806 ft 252 kts 353°
2026-04-16 03:02 -3.58411 138.66158 23170 ft 252 kts 353°
2026-04-16 03:02 -3.56670 138.65887 23526 ft 252 kts 353°
2026-04-16 03:02 -3.54909 138.65611 23734 ft 260 kts 352°
2026-04-16 03:03 -3.53092 138.65327 23800 ft 270 kts 352°
2026-04-16 03:03 -3.51366 138.65058 23830 ft 278 kts 352°
2026-04-16 03:03 -3.49426 138.64755 23842 ft 287 kts 352°
2026-04-16 03:03 -3.47433 138.64439 23847 ft 294 kts 352°
2026-04-16 03:04 -3.45392 138.64114 23849 ft 300 kts 352°
2026-04-16 03:04 -3.43317 138.63783 23849 ft 305 kts 352°
2026-04-16 03:04 -3.41210 138.63449 23849 ft 309 kts 352°
2026-04-16 03:04 -3.39074 138.63112 23849 ft 313 kts 352°
2026-04-16 03:05 -3.36920 138.62774 23849 ft 316 kts 352°
2026-04-16 03:05 -3.34742 138.62435 23848 ft 319 kts 352°
2026-04-16 03:05 -3.32546 138.62094 23848 ft 321 kts 352°
2026-04-16 03:05 -3.30367 138.61748 23848 ft 323 kts 351°
2026-04-16 03:06 -3.28223 138.61091 23846 ft 326 kts 335°
2026-04-16 03:06 -3.26378 138.59770 23848 ft 329 kts 316°
2026-04-16 03:06 -3.23618 138.56101 23848 ft 332 kts 303°
2026-04-16 03:07 -3.22353 138.54165 23848 ft 333 kts 303°
2026-04-16 03:07 -3.21082 138.52227 23849 ft 334 kts 303°
2026-04-16 03:07 -3.19804 138.50289 23849 ft 334 kts 303°
2026-04-16 03:07 -3.18507 138.48327 23851 ft 335 kts 303°
2026-04-16 03:08 -3.17254 138.46430 23850 ft 336 kts 303°
2026-04-16 03:08 -3.15963 138.44473 23850 ft 337 kts 303°
2026-04-16 03:08 -3.15106 138.43174 23850 ft 338 kts 303°
2026-04-16 03:08 -3.13389 138.40568 23851 ft 339 kts 303°
2026-04-16 03:09 -3.12092 138.38598 23851 ft 340 kts 303°
2026-04-16 03:09 -3.10792 138.36625 23851 ft 340 kts 303°
2026-04-16 03:09 -3.09915 138.35294 23851 ft 340 kts 303°
2026-04-16 03:09 -3.08190 138.32679 23852 ft 341 kts 303°
2026-04-16 03:10 -3.07308 138.31341 23854 ft 341 kts 303°
2026-04-16 03:10 -3.06018 138.29383 23853 ft 341 kts 303°
2026-04-16 03:10 -3.04690 138.27366 23853 ft 341 kts 303°
2026-04-16 03:10 -3.03541 138.25623 23853 ft 341 kts 303°
2026-04-16 03:11 -3.02242 138.23651 23853 ft 341 kts 303°
2026-04-16 03:11 -3.00935 138.21670 23853 ft 341 kts 303°
2026-04-16 03:11 -2.99629 138.19689 23854 ft 341 kts 303°
2026-04-16 03:11 -2.98331 138.17722 23854 ft 341 kts 303°
2026-04-16 03:12 -2.97026 138.15742 23855 ft 341 kts 303°
2026-04-16 03:12 -2.95724 138.13766 23855 ft 341 kts 303°
2026-04-16 03:12 -2.94418 138.11785 23855 ft 341 kts 303°
2026-04-16 03:12 -2.93110 138.09801 23856 ft 341 kts 303°
2026-04-16 03:13 -2.91820 138.07844 23856 ft 341 kts 303°
2026-04-16 03:13 -2.90518 138.05870 23857 ft 341 kts 303°
2026-04-16 03:13 -2.89213 138.03892 23857 ft 341 kts 303°
2026-04-16 03:13 -2.87910 138.01916 23857 ft 341 kts 303°
2026-04-16 03:14 -2.86606 137.99939 23858 ft 341 kts 303°
2026-04-16 03:14 -2.85305 137.97968 23858 ft 341 kts 303°
2026-04-16 03:14 -2.83998 137.95990 23859 ft 340 kts 302°
2026-04-16 03:14 -2.82694 137.94016 23859 ft 340 kts 302°
2026-04-16 03:15 -2.81395 137.92046 23859 ft 340 kts 302°
2026-04-16 03:15 -2.80094 137.90071 23860 ft 340 kts 302°
2026-04-16 03:15 -2.78794 137.88097 23860 ft 340 kts 302°
2026-04-16 03:15 -2.77493 137.86124 23861 ft 340 kts 302°
2026-04-16 03:16 -2.76195 137.84156 23861 ft 340 kts 302°
2026-04-16 03:16 -2.74892 137.82180 23861 ft 340 kts 302°
2026-04-16 03:16 -2.73591 137.80209 23862 ft 340 kts 302°
2026-04-16 03:16 -2.72307 137.78264 23862 ft 340 kts 302°
2026-04-16 03:17 -2.70993 137.76272 23863 ft 340 kts 302°
2026-04-16 03:17 -2.69708 137.74324 23863 ft 340 kts 302°
2026-04-16 03:17 -2.68408 137.72355 23864 ft 339 kts 302°
2026-04-16 03:17 -2.67108 137.70385 23864 ft 339 kts 302°
2026-04-16 03:18 -2.65812 137.68421 23864 ft 339 kts 302°
2026-04-16 03:18 -2.64511 137.66449 23865 ft 339 kts 302°
2026-04-16 03:18 -2.63212 137.64482 23865 ft 339 kts 302°
2026-04-16 03:18 -2.61914 137.62515 23866 ft 339 kts 302°
2026-04-16 03:19 -2.60616 137.60548 23867 ft 339 kts 302°
2026-04-16 03:19 -2.59321 137.58587 23866 ft 339 kts 302°
2026-04-16 03:19 -2.58018 137.56616 23858 ft 339 kts 302°
2026-04-16 03:19 -2.56719 137.54646 23848 ft 340 kts 302°
2026-04-16 03:20 -2.55435 137.52696 23844 ft 340 kts 302°
2026-04-16 03:20 -2.54120 137.50701 23842 ft 340 kts 302°
2026-04-16 03:20 -2.52831 137.48749 23842 ft 341 kts 302°
2026-04-16 03:20 -2.51591 137.46874 23842 ft 341 kts 302°
2026-04-16 03:21 -2.50317 137.44948 23842 ft 341 kts 302°
2026-04-16 03:21 -2.49011 137.42972 23842 ft 341 kts 302°
2026-04-16 03:21 -2.47705 137.40995 23842 ft 341 kts 302°
2026-04-16 03:21 -2.46399 137.39017 23843 ft 341 kts 302°
2026-04-16 03:22 -2.45095 137.37043 23843 ft 341 kts 302°
2026-04-16 03:22 -2.43787 137.35065 23843 ft 341 kts 302°
2026-04-16 03:22 -2.42475 137.33082 23844 ft 342 kts 302°
2026-04-16 03:22 -2.41170 137.31105 23844 ft 342 kts 302°
2026-04-16 03:23 -2.39862 137.29123 23844 ft 342 kts 302°
2026-04-16 03:23 -2.38557 137.27145 23845 ft 342 kts 302°
2026-04-16 03:23 -2.37192 137.25193 23843 ft 342 kts 307°
2026-04-16 03:23 -2.35593 137.23442 23846 ft 343 kts 315°
2026-04-16 03:24 -2.33853 137.21818 23847 ft 343 kts 316°
2026-04-16 03:24 -2.32124 137.20227 23847 ft 343 kts 316°
2026-04-16 03:24 -2.30396 137.18597 23847 ft 343 kts 315°
2026-04-16 03:24 -2.28684 137.16941 23847 ft 343 kts 315°
2026-04-16 03:25 -2.26980 137.15268 23847 ft 343 kts 314°
2026-04-16 03:25 -2.25282 137.13589 23848 ft 343 kts 314°
2026-04-16 03:25 -2.23585 137.11910 23848 ft 343 kts 314°
2026-04-16 03:25 -2.21888 137.10237 23848 ft 343 kts 314°
2026-04-16 03:26 -2.20193 137.08571 23848 ft 343 kts 314°
2026-04-16 03:26 -2.18511 137.06921 23849 ft 343 kts 314°
2026-04-16 03:26 -2.16809 137.05253 23849 ft 343 kts 315°
2026-04-16 03:26 -2.15107 137.03585 23849 ft 343 kts 315°
2026-04-16 03:27 -2.13401 137.01913 23849 ft 343 kts 314°
2026-04-16 03:27 -2.11704 137.00248 23850 ft 343 kts 314°
2026-04-16 03:27 -2.09999 136.98575 23850 ft 343 kts 314°
2026-04-16 03:27 -2.08301 136.96908 23850 ft 343 kts 314°
2026-04-16 03:28 -2.06600 136.95239 23850 ft 343 kts 314°
2026-04-16 03:28 -2.04899 136.93570 23851 ft 343 kts 314°
2026-04-16 03:28 -2.03197 136.91901 23851 ft 343 kts 314°
2026-04-16 03:28 -2.01496 136.90232 23851 ft 343 kts 314°
2026-04-16 03:29 -1.99795 136.88563 23851 ft 343 kts 314°
2026-04-16 03:29 -1.98096 136.86898 23852 ft 343 kts 314°
2026-04-16 03:29 -1.96390 136.85236 23852 ft 343 kts 314°
2026-04-16 03:29 -1.94672 136.83566 23852 ft 343 kts 314°
2026-04-16 03:30 -1.92997 136.81925 23852 ft 342 kts 314°
2026-04-16 03:30 -1.91307 136.80258 23853 ft 342 kts 314°
2026-04-16 03:30 -1.89629 136.78600 23852 ft 342 kts 314°
2026-04-16 03:30 -1.88110 136.77102 23853 ft 342 kts 314°
2026-04-16 03:31 -1.86463 136.75481 23853 ft 342 kts 314°
2026-04-16 03:31 -1.84771 136.73821 23853 ft 341 kts 314°
2026-04-16 03:31 -1.83252 136.72332 23855 ft 341 kts 314°
2026-04-16 03:31 -1.81591 136.70705 23854 ft 341 kts 314°
2026-04-16 03:32 -1.79907 136.69055 23853 ft 341 kts 314°
2026-04-16 03:32 -1.78211 136.67393 23854 ft 341 kts 314°
2026-04-16 03:34 -1.66468 136.55878 23855 ft 341 kts 314°
2026-04-16 03:34 -1.64776 136.54219 23855 ft 341 kts 314°
2026-04-16 03:34 -1.63084 136.52561 23855 ft 341 kts 314°
2026-04-16 03:34 -1.61391 136.50902 23856 ft 341 kts 314°
2026-04-16 03:35 -1.59699 136.49243 23856 ft 341 kts 314°
2026-04-16 03:35 -1.58014 136.47591 23856 ft 341 kts 314°
2026-04-16 03:35 -1.56322 136.45932 23856 ft 341 kts 314°
2026-04-16 03:35 -1.54630 136.44273 23856 ft 341 kts 314°
2026-04-16 03:36 -1.52938 136.42615 23856 ft 341 kts 314°
2026-04-16 03:36 -1.51268 136.40978 23856 ft 341 kts 314°
2026-04-16 03:36 -1.49553 136.39298 23856 ft 341 kts 314°
2026-04-16 03:36 -1.47884 136.37661 23856 ft 341 kts 314°
2026-04-16 03:37 -1.46196 136.36006 23856 ft 341 kts 314°
2026-04-16 03:37 -1.44504 136.34348 23856 ft 341 kts 314°
2026-04-16 03:37 -1.42824 136.32702 23856 ft 341 kts 314°
2026-04-16 03:37 -1.41099 136.31012 23856 ft 341 kts 314°
2026-04-16 03:38 -1.39491 136.29436 23856 ft 340 kts 314°
2026-04-16 03:38 -1.37808 136.27787 23856 ft 338 kts 314°
2026-04-16 03:38 -1.36137 136.26149 23856 ft 337 kts 314°
2026-04-16 03:38 -1.34468 136.24514 23856 ft 336 kts 314°
2026-04-16 03:39 -1.32804 136.22883 23856 ft 335 kts 314°
2026-04-16 03:39 -1.31145 136.21257 23856 ft 334 kts 314°
2026-04-16 03:39 -1.29489 136.19635 23856 ft 333 kts 314°
2026-04-16 03:39 -1.27841 136.18019 23856 ft 333 kts 314°
2026-04-16 03:40 -1.26191 136.16403 23856 ft 332 kts 314°
2026-04-16 03:40 -1.24543 136.14789 23856 ft 332 kts 314°
2026-04-16 03:40 -1.22895 136.13179 23856 ft 331 kts 314°
2026-04-16 03:40 -1.21297 136.11614 23857 ft 331 kts 314°
2026-04-16 03:41 -1.19739 136.10045 23856 ft 330 kts 310°
2026-04-16 03:41 -1.18489 136.08143 23856 ft 327 kts 292°
2026-04-16 03:41 -1.17835 136.05981 23858 ft 325 kts 279°
2026-04-16 03:41 -1.17498 136.03781 23857 ft 325 kts 275°
2026-04-16 03:42 -1.17205 136.01542 23857 ft 324 kts 276°
2026-04-16 03:42 -1.16897 135.99311 23857 ft 324 kts 276°
2026-04-16 03:42 -1.16574 135.97082 23857 ft 324 kts 276°
2026-04-16 03:42 -1.16243 135.94855 23857 ft 324 kts 276°
2026-04-16 03:43 -1.15913 135.92630 23857 ft 324 kts 276°
2026-04-16 03:43 -1.15585 135.90410 23857 ft 324 kts 276°
2026-04-16 03:43 -1.15264 135.88205 23857 ft 324 kts 276°
2026-04-16 03:43 -1.14942 135.85986 23857 ft 323 kts 276°
2026-04-16 03:44 -1.14622 135.83763 23857 ft 323 kts 276°
2026-04-16 03:44 -1.14301 135.81541 23857 ft 323 kts 276°
2026-04-16 03:44 -1.13980 135.79319 23857 ft 323 kts 276°
2026-04-16 03:44 -1.13659 135.77098 23857 ft 323 kts 276°
2026-04-16 03:45 -1.13338 135.74882 23857 ft 323 kts 276°
2026-04-16 03:45 -1.13017 135.72662 23857 ft 323 kts 276°
2026-04-16 03:45 -1.12695 135.70443 23857 ft 323 kts 276°
2026-04-16 03:45 -1.12371 135.68224 23857 ft 323 kts 276°
2026-04-16 03:46 -1.12047 135.66007 23857 ft 323 kts 276°
2026-04-16 03:46 -1.11725 135.63790 23857 ft 322 kts 276°
2026-04-16 03:46 -1.11406 135.61579 23857 ft 322 kts 276°
2026-04-16 03:46 -1.11087 135.59358 23857 ft 322 kts 276°
2026-04-16 03:47 -1.10768 135.57143 23857 ft 322 kts 276°
2026-04-16 03:47 -1.10447 135.54925 23857 ft 322 kts 276°
2026-04-16 03:47 -1.10128 135.52716 23857 ft 322 kts 276°
2026-04-16 03:47 -1.09810 135.50528 23857 ft 322 kts 276°
2026-04-16 03:48 -1.09485 135.48286 23857 ft 322 kts 276°
2026-04-16 03:48 -1.09169 135.46104 23857 ft 322 kts 276°
2026-04-16 03:48 -1.08845 135.43869 23857 ft 322 kts 276°
2026-04-16 03:48 -1.08534 135.41724 23857 ft 322 kts 276°
2026-04-16 03:49 -1.08207 135.39469 23857 ft 322 kts 276°
2026-04-16 03:49 -1.07888 135.37265 23857 ft 321 kts 276°
2026-04-16 03:49 -1.07569 135.35066 23857 ft 321 kts 276°
2026-04-16 03:49 -1.07250 135.32866 23857 ft 321 kts 276°
2026-04-16 03:50 -1.06931 135.30663 23857 ft 321 kts 276°
2026-04-16 03:50 -1.06610 135.28452 23857 ft 321 kts 276°
2026-04-16 03:50 -1.06290 135.26245 23857 ft 321 kts 276°
2026-04-16 03:50 -1.05989 135.24166 23857 ft 321 kts 276°
2026-04-16 03:51 -1.05688 135.22093 23857 ft 321 kts 276°
2026-04-16 03:51 -1.05368 135.19883 23857 ft 321 kts 276°
2026-04-16 03:51 -1.05048 135.17681 23857 ft 321 kts 276°
2026-04-16 03:51 -1.04728 135.15472 23857 ft 321 kts 276°
2026-04-16 03:52 -1.04408 135.13265 23857 ft 321 kts 276°
2026-04-16 03:52 -1.04085 135.11056 23857 ft 321 kts 276°
2026-04-16 03:52 -1.03763 135.08857 23857 ft 320 kts 276°
2026-04-16 03:52 -1.03443 135.06654 23857 ft 320 kts 276°
2026-04-16 03:53 -1.03125 135.04451 23857 ft 320 kts 276°
2026-04-16 03:53 -1.02808 135.02249 23857 ft 320 kts 276°
2026-04-16 03:53 -1.02598 135.00792 23857 ft 320 kts 276°
2026-04-16 03:53 -1.02177 134.97881 23857 ft 320 kts 276°
2026-04-16 03:54 -1.01857 134.95676 23857 ft 320 kts 276°
2026-04-16 03:54 -1.01537 134.93477 23857 ft 320 kts 276°
2026-04-16 03:54 -1.01218 134.91276 23857 ft 320 kts 276°
2026-04-16 03:54 -1.01006 134.89819 23857 ft 320 kts 276°
2026-04-16 03:55 -1.00580 134.86878 23857 ft 320 kts 276°
2026-04-16 03:55 -1.00368 134.85422 23857 ft 320 kts 276°
2026-04-16 03:55 -1.00049 134.83227 23857 ft 319 kts 276°
2026-04-16 03:55 -0.99731 134.81033 23857 ft 319 kts 276°
2026-04-16 03:56 -0.99304 134.78092 23857 ft 319 kts 276°
2026-04-16 03:56 -0.99095 134.76651 23857 ft 319 kts 276°
2026-04-16 03:56 -0.98781 134.74489 23857 ft 319 kts 276°
2026-04-16 03:56 -0.98462 134.72291 23857 ft 319 kts 276°
2026-04-16 03:57 -0.98143 134.70095 23857 ft 319 kts 276°
2026-04-16 03:57 -0.97825 134.67901 23857 ft 319 kts 276°
2026-04-16 03:57 -0.97510 134.65730 23857 ft 319 kts 276°
2026-04-16 03:57 -0.97191 134.63538 23857 ft 319 kts 276°
2026-04-16 03:58 -0.96873 134.61344 23857 ft 319 kts 276°
2026-04-16 03:58 -0.96558 134.59175 23858 ft 319 kts 276°
2026-04-16 03:58 -0.96240 134.56984 23858 ft 319 kts 276°
2026-04-16 03:58 -0.95921 134.54790 23858 ft 319 kts 276°
2026-04-16 03:59 -0.95603 134.52603 23859 ft 319 kts 276°
2026-04-16 03:59 -0.95284 134.50408 23860 ft 319 kts 276°
2026-04-16 03:59 -0.94967 134.48220 23861 ft 319 kts 276°
2026-04-16 03:59 -0.94648 134.46028 23861 ft 319 kts 276°
2026-04-16 04:00 -0.94330 134.43841 23861 ft 319 kts 276°
2026-04-16 04:00 -0.94026 134.41643 23862 ft 318 kts 276°
2026-04-16 04:00 -0.93754 134.39452 23862 ft 318 kts 275°
2026-04-16 04:00 -0.93502 134.37259 23862 ft 318 kts 275°
2026-04-16 04:01 -0.93291 134.35394 23862 ft 318 kts 275°
2026-04-16 04:01 -0.93040 134.33201 23862 ft 318 kts 275°
2026-04-16 04:01 -0.92782 134.31005 23862 ft 318 kts 275°
2026-04-16 04:01 -0.92519 134.28813 23862 ft 318 kts 275°
2026-04-16 04:02 -0.92258 134.26649 23862 ft 318 kts 275°
2026-04-16 04:02 -0.91990 134.24431 23863 ft 318 kts 275°
2026-04-16 04:02 -0.91729 134.22269 23863 ft 317 kts 275°
2026-04-16 04:02 -0.91464 134.20080 23863 ft 317 kts 275°
2026-04-16 04:03 -0.91200 134.17889 23863 ft 317 kts 275°
2026-04-16 04:03 -0.90936 134.15700 23863 ft 317 kts 275°
2026-04-16 04:03 -0.90671 134.13508 23863 ft 317 kts 275°
2026-04-16 04:03 -0.90407 134.11321 23863 ft 317 kts 275°
2026-04-16 04:04 -0.90143 134.09136 23864 ft 317 kts 275°
2026-04-16 04:04 -0.89879 134.06950 23864 ft 317 kts 275°
2026-04-16 04:04 -0.89640 134.04761 23864 ft 317 kts 273°
2026-04-16 04:04 -0.89560 134.02565 23864 ft 317 kts 269°
2026-04-16 04:05 -0.89574 134.00363 23864 ft 316 kts 268°
2026-04-16 04:05 -0.89608 133.98167 23864 ft 316 kts 268°
2026-04-16 04:05 -0.89638 133.95972 23864 ft 316 kts 268°
2026-04-16 04:05 -0.89654 133.93775 23865 ft 316 kts 268°
2026-04-16 04:06 -0.89656 133.91584 23865 ft 316 kts 269°
2026-04-16 04:06 -0.89653 133.89393 23865 ft 316 kts 269°
2026-04-16 04:06 -0.89648 133.87224 23865 ft 316 kts 269°
2026-04-16 04:06 -0.89644 133.85036 23865 ft 316 kts 269°
2026-04-16 04:07 -0.89642 133.82842 23866 ft 315 kts 269°
2026-04-16 04:07 -0.89640 133.78465 23866 ft 315 kts 269°
2026-04-16 04:07 -0.89640 133.76277 23866 ft 315 kts 269°
2026-04-16 04:08 -0.89640 133.74087 23866 ft 315 kts 269°
2026-04-16 04:08 -0.89639 133.71890 23866 ft 315 kts 269°
2026-04-16 04:08 -0.89639 133.69714 23867 ft 315 kts 269°
2026-04-16 04:08 -0.89638 133.67529 23867 ft 315 kts 269°
2026-04-16 04:09 -0.89638 133.65347 23867 ft 315 kts 269°
2026-04-16 04:09 -0.89634 133.63164 23867 ft 315 kts 269°
2026-04-16 04:09 -0.89603 133.61002 23867 ft 315 kts 270°
2026-04-16 04:09 -0.89539 133.58788 23867 ft 315 kts 270°
2026-04-16 04:10 -0.89460 133.56599 23868 ft 315 kts 271°
2026-04-16 04:10 -0.89382 133.54441 23868 ft 315 kts 270°
2026-04-16 04:10 -0.89308 133.52256 23868 ft 315 kts 270°
2026-04-16 04:10 -0.89242 133.50119 23868 ft 315 kts 270°
2026-04-16 04:11 -0.89183 133.48188 23868 ft 315 kts 270°
2026-04-16 04:11 -0.89117 133.45996 23869 ft 315 kts 270°
2026-04-16 04:11 -0.89053 133.43808 23869 ft 315 kts 270°
2026-04-16 04:11 -0.88990 133.41621 23869 ft 315 kts 270°
2026-04-16 04:12 -0.88929 133.39433 23869 ft 315 kts 270°
2026-04-16 04:12 -0.88868 133.37246 23869 ft 315 kts 270°
2026-04-16 04:12 -0.88806 133.35061 23869 ft 315 kts 270°
2026-04-16 04:12 -0.88743 133.32870 23870 ft 315 kts 270°
2026-04-16 04:13 -0.88680 133.30685 23870 ft 315 kts 270°
2026-04-16 04:13 -0.88617 133.28497 23870 ft 315 kts 270°
2026-04-16 04:13 -0.88555 133.26338 23870 ft 315 kts 270°
2026-04-16 04:13 -0.88493 133.24149 23870 ft 315 kts 270°
2026-04-16 04:14 -0.88430 133.21957 23871 ft 315 kts 270°
2026-04-16 04:14 -0.88368 133.19771 23871 ft 315 kts 270°
2026-04-16 04:14 -0.88306 133.17583 23871 ft 315 kts 270°
2026-04-16 04:14 -0.88244 133.15396 23871 ft 315 kts 270°
2026-04-16 04:15 -0.88182 133.13207 23871 ft 315 kts 270°
2026-04-16 04:15 -0.88119 133.11022 23872 ft 315 kts 270°
2026-04-16 04:15 -0.88054 133.08836 23872 ft 315 kts 270°
2026-04-16 04:15 -0.87991 133.06648 23872 ft 315 kts 270°
2026-04-16 04:16 -0.87928 133.04464 23872 ft 315 kts 270°
2026-04-16 04:16 -0.87866 133.02279 23872 ft 315 kts 270°
2026-04-16 04:16 -0.87806 133.00094 23872 ft 314 kts 270°
2026-04-16 04:16 -0.87744 132.97912 23873 ft 314 kts 270°
2026-04-16 04:17 -0.87682 132.95746 23873 ft 314 kts 270°
2026-04-16 04:17 -0.87620 132.93580 23873 ft 314 kts 270°
2026-04-16 04:17 -0.87556 132.91394 23873 ft 314 kts 270°
2026-04-16 04:17 -0.87495 132.89260 23873 ft 314 kts 270°
2026-04-16 04:18 -0.87432 132.87084 23874 ft 314 kts 270°
2026-04-16 04:18 -0.87371 132.84905 23874 ft 314 kts 270°
2026-04-16 04:18 -0.87309 132.82737 23874 ft 314 kts 270°
2026-04-16 04:18 -0.87247 132.80571 23874 ft 314 kts 270°
2026-04-16 04:19 -0.87185 132.78422 23874 ft 314 kts 270°
2026-04-16 04:19 -0.87122 132.76257 23874 ft 314 kts 270°
2026-04-16 04:19 -0.87059 132.74077 23874 ft 314 kts 270°
2026-04-16 04:19 -0.86997 132.71899 23873 ft 314 kts 270°
2026-04-16 04:20 -0.86935 132.69721 23874 ft 314 kts 270°
2026-04-16 04:20 -0.86873 132.67538 23874 ft 314 kts 270°
2026-04-16 04:20 -0.86811 132.65362 23874 ft 314 kts 270°
2026-04-16 04:20 -0.86747 132.63182 23874 ft 314 kts 270°
2026-04-16 04:21 -0.86691 132.61276 23874 ft 314 kts 270°
2026-04-16 04:21 -0.86639 132.59113 23875 ft 314 kts 270°
2026-04-16 04:21 -0.86631 132.56933 23875 ft 314 kts 268°
2026-04-16 04:21 -0.86663 132.54780 23852 ft 307 kts 268°
2026-04-16 04:22 -0.86715 132.52689 23678 ft 302 kts 268°
2026-04-16 04:22 -0.86769 132.50662 23222 ft 307 kts 268°
2026-04-16 04:22 -0.86815 132.48550 22770 ft 311 kts 268°
2026-04-16 04:22 -0.86851 132.46382 22319 ft 313 kts 268°
2026-04-16 04:23 -0.86879 132.44200 21868 ft 315 kts 268°
2026-04-16 04:23 -0.86905 132.42013 21419 ft 316 kts 268°
2026-04-16 04:23 -0.86933 132.39814 21010 ft 316 kts 268°
2026-04-16 04:23 -0.86962 132.37627 20681 ft 314 kts 268°
2026-04-16 04:24 -0.86991 132.35468 20356 ft 312 kts 268°
2026-04-16 04:24 -0.87021 132.33328 19978 ft 314 kts 268°
2026-04-16 04:24 -0.87053 132.31154 19525 ft 317 kts 268°
2026-04-16 04:24 -0.87086 132.28944 19067 ft 319 kts 268°
2026-04-16 04:25 -0.87117 132.26751 18614 ft 320 kts 268°
2026-04-16 04:25 -0.87146 132.24546 18160 ft 321 kts 268°
2026-04-16 04:25 -0.87175 132.22333 17755 ft 321 kts 268°
2026-04-16 04:25 -0.87206 132.20105 17331 ft 320 kts 268°
2026-04-16 04:26 -0.87238 132.17896 16897 ft 320 kts 268°
2026-04-16 04:26 -0.87271 132.15674 16452 ft 320 kts 268°
2026-04-16 04:26 -0.87304 132.13449 16001 ft 319 kts 268°
2026-04-16 04:26 -0.87336 132.11241 15551 ft 319 kts 268°
2026-04-16 04:27 -0.87366 132.09065 15106 ft 318 kts 268°
2026-04-16 04:27 -0.87394 132.06889 14660 ft 316 kts 268°
2026-04-16 04:27 -0.87424 132.04712 14213 ft 315 kts 268°
2026-04-16 04:27 -0.87454 132.02540 13766 ft 314 kts 268°
2026-04-16 04:28 -0.87485 132.00378 13322 ft 312 kts 268°
2026-04-16 04:28 -0.87515 131.98217 12878 ft 310 kts 268°
2026-04-16 04:28 -0.87544 131.96087 12440 ft 308 kts 268°
2026-04-16 04:28 -0.87575 131.93948 12000 ft 307 kts 268°
2026-04-16 04:29 -0.87606 131.91823 11562 ft 305 kts 268°
2026-04-16 04:29 -0.87636 131.89708 11127 ft 303 kts 268°
2026-04-16 04:29 -0.87666 131.87604 10695 ft 302 kts 268°
2026-04-16 04:29 -0.87696 131.85502 10262 ft 302 kts 268°
2026-04-16 04:30 -0.87725 131.83413 9833 ft 302 kts 268°
2026-04-16 04:30 -0.87754 131.81315 9401 ft 302 kts 268°
2026-04-16 04:30 -0.87782 131.79225 8965 ft 294 kts 268°
2026-04-16 04:30 -0.87807 131.77301 8568 ft 279 kts 268°
2026-04-16 04:31 -0.87827 131.75629 8223 ft 264 kts 268°
2026-04-16 04:31 -0.87849 131.73889 7862 ft 244 kts 268°
2026-04-16 04:31 -0.87871 131.72262 7529 ft 234 kts 267°
2026-04-16 04:31 -0.87895 131.70651 7205 ft 236 kts 267°
2026-04-16 04:32 -0.87924 131.69000 6867 ft 240 kts 267°
2026-04-16 04:32 -0.87976 131.67349 6528 ft 243 kts 266°
2026-04-16 04:32 -0.88044 131.65659 6180 ft 245 kts 266°
2026-04-16 04:32 -0.88121 131.63949 5828 ft 247 kts 266°
2026-04-16 04:33 -0.88198 131.62225 5469 ft 249 kts 266°
2026-04-16 04:33 -0.88273 131.60497 5111 ft 248 kts 266°
2026-04-16 04:33 -0.88342 131.58811 4768 ft 239 kts 266°
2026-04-16 04:33 -0.88408 131.57174 4430 ft 233 kts 266°
2026-04-16 04:34 -0.88473 131.55610 4104 ft 228 kts 266°
2026-04-16 04:34 -0.88538 131.54061 3814 ft 220 kts 266°
2026-04-16 04:34 -0.88699 131.52610 3599 ft 211 kts 258°
2026-04-16 04:34 -0.89047 131.51213 3384 ft 205 kts 253°
2026-04-16 04:35 -0.89431 131.49858 3151 ft 201 kts 252°
2026-04-16 04:35 -0.89800 131.48525 2886 ft 198 kts 256°
2026-04-16 04:35 -0.89989 131.47178 2619 ft 197 kts 264°
2026-04-16 04:35 -0.90059 131.45822 2379 ft 195 kts 266°
2026-04-16 04:36 -0.90093 131.44519 2255 ft 182 kts 267°
2026-04-16 04:36 -0.90103 131.43319 2097 ft 169 kts 268°
2026-04-16 04:36 -0.90101 131.42252 2165 ft 143 kts 268°
2026-04-16 04:36 -0.90098 131.41325 2135 ft 127 kts 267°
2026-04-16 04:37 -0.90097 131.40481 2012 ft 123 kts 266°
2026-04-16 04:37 -0.90091 131.39575 1971 ft 136 kts 268°
2026-04-16 04:37 -0.90062 131.38598 2027 ft 145 kts 269°
2026-04-16 04:37 -0.90010 131.37582 2130 ft 147 kts 270°
2026-04-16 04:38 -0.89928 131.36550 2023 ft 150 kts 272°
2026-04-16 04:38 -0.89860 131.35476 1705 ft 144 kts 272°
2026-04-16 04:38 -0.89787 131.34485 1245 ft 137 kts 272°
2026-04-16 04:38 -0.89718 131.33556 842 ft 127 kts 272°
2026-04-16 04:39 -0.89653 131.32737 517 ft 109 kts 271°
2026-04-16 04:39 -0.89623 131.32205 497 ft 117 kts 271°
2026-04-16 04:39 -0.89563 131.31161 292 ft 109 kts 271°
2026-04-16 04:39 -0.89508 131.30348 140 ft 122 kts 270°
2026-04-16 04:40 -0.89455 131.29552 19 ft 100 kts 270°
2026-04-16 04:40 -0.89419 131.28982 18 ft 55 kts 275°
2026-04-16 04:40 -0.89412 131.28879 18 ft 2 kts 274°
2026-04-16 04:40 -0.89421 131.28842 18 ft 9 kts 260°
2026-04-16 04:41 -0.89400 131.28824 18 ft 2 kts 79°
2026-04-16 04:41 -0.89407 131.28873 18 ft 7 kts 79°
2026-04-16 04:41 -0.89364 131.28907 18 ft 5 kts
2026-04-16 04:41 -0.89365 131.28907 18 ft 1 kts
2026-04-16 04:42 -0.89380 131.28904 18 ft 3 kts
2026-04-16 04:42 -0.89386 131.28903 18 ft 7 kts
2026-04-16 04:42 -0.89360 131.28907 18 ft 1 kts
2026-04-16 04:42 -0.89311 131.28912 18 ft 16 kts
2026-04-16 04:43 -0.89232 131.28918 18 ft 7 kts 20°
2026-04-16 04:43 -0.89205 131.28951 18 ft 6 kts 37°
2026-04-16 04:43 -0.89189 131.28956 18 ft 1 kts
2026-04-16 04:43 -0.89193 131.28955 18 ft 0 kts
2026-04-16 04:45 -0.89194 131.28955 18 ft 0 kts
2026-04-16 04:45 -0.89203 131.28954 18 ft 2 kts
2026-04-16 04:45 -0.89222 131.28951 18 ft 2 kts
2026-04-16 04:46 -0.89227 131.28971 18 ft 2 kts 122°
2026-04-16 04:46 -0.89216 131.28990 18 ft 4 kts 40°
2026-04-16 04:46 -0.89197 131.28996 18 ft 1 kts 10°
2026-04-16 04:46 -0.89186 131.28997 18 ft 0 kts
2026-04-16 04:47 -0.89174 131.28998 18 ft 2 kts
2026-04-16 04:47 -0.89158 131.28999 18 ft 2 kts
2026-04-16 04:47 -0.89164 131.28998 18 ft 2 kts
2026-04-16 04:47 -0.89181 131.28997 18 ft 3 kts
2026-04-16 04:48 -0.89179 131.28997 18 ft 1 kts